Regional Weather Roundup
Issued by NWS Kansas City/Pleasant Hill, MO

Home | Current Version | Previous Version | Graphics & Text | Print | Product List | Glossary Off
Versions: 1 2 3 4 5 6 7 8 9 10 11 12 13 14 15 16 17 18 19 20 21 22 23 24 25 26 27 28 29 30 31 32 33 34 35 36 37 38 39 40 41 42 43 44 45 46 47 48 49 50

000
ASUS43 KEAX 230710
RWREAX

WEATHER ROUNDUP FOR EASTERN KANSAS AND NORTHWEST MISSOURI
NATIONAL WEATHER SERVICE KANSAS CITY/PLEASANT HILL MO
200 AM CDT WED APR 23 2014

KSZ040-057-103>105-MOZ028-029-037-043-230800-
...KANSAS CITY METROPOLITAN AREA...

CITY           SKY/WX    TMP DP  RH WIND       PRES   REMARKS
K.C. INTL      PTCLDY    56  34  43 E10       30.00S
K.C. DOWNTOWN  PTCLDY    55  34  45 E5        29.99S
LEES SUMMIT    CLEAR     54  34  46 SE5       30.01S
OLATHE - IXD   MOCLDY    53  35  50 SE5       29.99F
OLATHE - OJC   CLOUDY    54  35  48 SE5       29.99S
LAWRENCE       CLOUDY    51  40  65 E6        29.98F

$$

MOZ001>008-011>017-020>025-030>033-038>040-044>046-053-054-230800-
...NORTHERN AND CENTRAL MISSOURI...

CITY           SKY/WX    TMP DP  RH WIND       PRES   REMARKS
ST. JOSEPH     MOCLDY    56  35  45 SE10      30.00S
MOSBY          FAIR      50  37  62 S3        30.01R
WARRENSBURG    CLEAR    N/A N/A N/A E5        30.00S
WHITEMAN AFB   MOCLDY    50  33  51 E7        30.00F
CLINTON        CLEAR     48  43  81 E7        30.00F
SEDALIA        CLEAR     50  37  61 E5        30.02F
WARSAW         NOT AVBL
MARSHALL         N/A     52  39  62 E5        30.03S
CHILLICOTHE      N/A     52  35  52 CALM      30.04F
MOBERLY        CLEAR     46  36  66 NE6       30.05S
KIRKSVILLE     MOCLDY    48  33  56 NE6       30.05F

$$

MOZ041-047>049-056>058-063>065-088>090-097-230800-
...EASTERN AND SOUTHERN MISSOURI...

CITY           SKY/WX    TMP DP  RH WIND       PRES   REMARKS
ST. LOUIS INTL PTCLDY    50  34  54 CALM      30.04S
SPIRIT OF STL  CLEAR     42  38  85 CALM      30.04R
COLUMBIA       CLEAR     49  35  58 NE7       30.03F
JEFFERSON CITY CLEAR     48  39  71 CALM      30.04R
MEXICO         CLEAR     46  36  66 NE6       30.05R
HANNIBAL       CLEAR     52  27  37 NE3       30.06R
ROLLA          CLEAR     47  32  56 NE7       30.02S
LEBANON        CLEAR     52  32  46 E3        30.03R
OSAGE BEACH    CLEAR     48  34  57 CALM      30.04S
SPRINGFIELD    PTCLDY    49  36  61 E6        30.00S
BRANSON        PTCLDY    52  36  54 E5        30.01F
NEVADA         PTCLDY    50  37  62 SE5       30.00S
JOPLIN         PTCLDY    51  38  60 E5        29.98F
WEST PLAINS    CLEAR     45  33  63 CALM      30.03R

$$

IAZ060-094-KSZ022-034>040-054-083-096-NEZ052-066-093-230800-
...KANSAS...SOUTHEAST NEBRASKA AND IOWA...

CITY           SKY/WX    TMP DP  RH WIND       PRES   REMARKS
TOPEKA         MOCLDY    54  37  52 SE7       29.96F
MANHATTAN      CLOUDY    57  36  45 S6        29.96R
EMPORIA        PTCLDY    54  36  50 SE10      29.95F HAZE
CHANUTE        CLOUDY    53  40  61 E6        29.98F
WICHITA        PTCLDY    59  34  39 SE14      29.90F
OMAHA          MOCLDY    57  34  41 SE10      29.97R
LINCOLN        MOCLDY    60  33  36 SE18      29.94F
FALLS CITY     CLEAR     51  36  56 SE12      29.95F
LAMONI         CLOUDY    53  34  48 E8        30.02F
DES MOINES     CLOUDY    54  32  43 E7        30.05S

$$




USA.gov is the U.S. government's official web portal to all federal, state and local government web resources and services.